Zurück zum Katalog

COSMOS 2251 DEB

AktivLEO
NORAD 36451·DEBRIS·🇷🇺 Russia

Gestartet Jun 16, 1993 von Plesetsk Cosmodrome

Loading…

Nächste Überflüge (nächste 24 Stunden)

TLE

AlterndSource: Space-Track

Epoche: Sep 12, 2026, 05:05 UTC

1 36451U 93036BBA 26255.21204917  .00001379  00000-0  56188-3 0  9997
2 36451  73.9522 203.8999 0183517 327.6367  31.3621 14.19708916881052

Verfolge COSMOS 2251 DEB in Echtzeit mit AllMySat

Download on the App Store